This is the latest recevied weather packets stored in our database for station/object KB2SKP. If no packets are shown the sender has not sent any weather packets the latest 10 day(s).
| Time | Temp. | Humidity | Pressure | Rain* | Wind** | Luminosity | Snow |
|---|---|---|---|---|---|---|---|
| 1778115076 | 18.89° C | 88% | 1005.8 hPa | 0 mm | - | 0 W/m² | - |
| 1778114773 | 18.89° C | 87% | 1005.4 hPa | 0 mm | - | 0 W/m² | - |
| 1778114471 | 19.44° C | 86% | 1005.7 hPa | 0 mm | - | 0 W/m² | - |
| 1778114167 | 19.44° C | 86% | 1005.6 hPa | 0 mm | - | 0 W/m² | - |
| 1778113862 | 19.44° C | 85% | 1005.5 hPa | 0 mm | - | 0 W/m² | - |
| 1778113559 | 19.44° C | 85% | 1005.5 hPa | 0 mm | - | 0 W/m² | - |
| 1778113254 | 19.44° C | 85% | 1005.5 hPa | 0 mm | - | 0 W/m² | - |
| 1778112951 | 19.44° C | 85% | 1005.2 hPa | 0 mm | - | 0 W/m² | - |
| 1778112649 | 20° C | 85% | 1005.5 hPa | 0 mm | - | 0 W/m² | - |
| 1778112345 | 20° C | 84% | 1005.3 hPa | 0 mm | - | 1 W/m² | - |
| 1778112040 | 20° C | 84% | 1005.2 hPa | 0 mm | - | 1 W/m² | - |
| 1778111738 | 20° C | 84% | 1005.2 hPa | 0 mm | - | 2 W/m² | - |
| 1778111433 | 20° C | 83% | 1005.1 hPa | 0 mm | - | 3 W/m² | - |
| 1778111131 | 20° C | 83% | 1005.1 hPa | 0 mm | - | 5 W/m² | - |
| 1778110822 | 20.56° C | 82% | 1005.1 hPa | 0 mm | - | 6 W/m² | - |
| 1778110519 | 20.56° C | 82% | 1005.2 hPa | 0 mm | - | 7 W/m² | - |
| 1778110216 | 20.56° C | 82% | 1005.2 hPa | 0 mm | - | 9 W/m² | - |
| 1778109912 | 20.56° C | 82% | 1005 hPa | 0 mm | - | 11 W/m² | - |
| 1778109608 | 20.56° C | 81% | 1004.9 hPa | 0 mm | - | 12 W/m² | - |
| 1778109305 | 20.56° C | 81% | 1004.9 hPa | 0 mm | - | 15 W/m² | - |
| 1778109003 | 20.56° C | 81% | 1004.7 hPa | 0 mm | - | 17 W/m² | - |
| 1778108699 | 20.56° C | 81% | 1005.1 hPa | 0 mm | - | 19 W/m² | - |
| 1778108396 | 20.56° C | 80% | 1004.9 hPa | 0 mm | - | 24 W/m² | - |
| 1778108093 | 21.11° C | 80% | 1004.9 hPa | 0 mm | - | 24 W/m² | - |
| 1778107789 | 21.11° C | 80% | 1005.1 hPa | 0 mm | - | 28 W/m² | - |
* Rain latest hour (hover to see other rain measurements)
** Current wind speed in m/s (hover to see current wind gust speed)